Home > Weather > Ilmenau > Past weeks

Flag for Germany Weather for the Past 2 Weeks in Ilmenau, Thuringia, Germany

Now
39 °F

Partly cloudy.


Feels Like: 34 °F
Forecast: 29 / 37 °F
Wind: 7 mph from West

Location: Erfurt-Bindersleben

Current Time: Feb 14, 2016 at 6:52:39 PM

Latest Report: Feb 14, 2016 at 6:20 PM


Visibility: N/A

Pressure: 29.30 "Hg

Humidity: 93%

Dew point: 37 °F

Location of IlmenauLocation

Historic Weather in Ilmenau — Graph

°F

Ilmenau Temperature Yesterday

Maximum temperature yesterday: 39 °F (at 12:50 PM)
Minimum temperature yesterday: 25 °F (at 6:20 AM)
Average temperature yesterday: 33 °F

High & Low Weather Summary for the Past Weeks

 TemperatureHumidityPressure
High54 °F (Feb 1, 1:20 PM)100% (Feb 1, 5:20 AM)30.30 "Hg (Feb 1, 5:20 AM)
Low25 °F (Feb 13, 6:20 AM)47% (Feb 7, 1:20 PM)28.97 "Hg (Feb 9, 7:20 PM)
Average40 °F80%29.69 "Hg
* Reported Jan 30 5:20 PM — Feb 14 5:20 PM, Ilmenau, Weather by CustomWeather, © 2016

Note: Actual official high and low records may vary slightly from our data, if they occured in-between our weather recording intervals... More about our weather records

Advertising

Ilmenau Weather History for the Previous 24 Hours

 ConditionsComfort  
Time TempWeatherWind HumidityBarometerVisibility
5:20 PM
Sun, Feb 14
41 °FDrizzle. Broken clouds.10 mph87%29.27 "HgN/A
4:50 PM41 °FBroken clouds.9 mph87%29.24 "HgN/A
4:20 PM43 °FScattered clouds.8 mph87%29.21 "HgN/A
3:50 PM43 °FScattered clouds.7 mph87%29.21 "HgN/A
3:20 PM43 °FBroken clouds.10 mph87%29.18 "HgN/A
2:50 PM43 °FDrizzle. Broken clouds.9 mph87%29.18 "HgN/A
2:20 PM43 °FLight rain. Broken clouds.13 mph87%29.18 "HgN/A
1:50 PM43 °FBroken clouds.10 mph87%29.15 "HgN/A
1:20 PM43 °FDrizzle. Broken clouds.8 mph93%29.15 "HgN/A
12:50 PM43 °FSprinkles. Broken clouds.8 mph87%29.15 "HgN/A
12:20 PM43 °FDrizzle. Broken clouds.9 mph87%29.15 "HgN/A
11:50 AM43 °FBroken clouds.8 mph87%29.12 "HgN/A
11:20 AM43 °FBroken clouds.8 mph87%29.12 "HgN/A
10:50 AM43 °FDrizzle. Broken clouds.10 mph87%29.12 "HgN/A
10:20 AM43 °FBroken clouds.12 mph87%29.09 "HgN/A
9:50 AM43 °FBroken clouds.10 mph81%29.09 "HgN/A
9:20 AM41 °FBroken clouds.8 mph87%29.09 "HgN/A
8:20 AM41 °FLight rain. Broken clouds.6 mph87%29.06 "HgN/A
7:50 AM39 °FLight rain. Broken clouds.5 mph93%29.06 "HgN/A
7:20 AM37 °FLight rain. Passing clouds.1 mph93%29.06 "HgN/A
6:50 AM37 °FLight rain. Passing clouds.2 mph93%29.03 "HgN/A
6:20 AM37 °FLight rain. Passing clouds.2 mph93%29.03 "HgN/A
5:50 AM36 °FLight rain. Partly cloudy.1 mph100%29.06 "HgN/A
5:20 AM36 °FLight rain. Partly cloudy.2 mph93%29.03 "HgN/A
4:50 AM36 °FLight rain. Partly cloudy.2 mph93%29.03 "HgN/A
4:20 AM36 °FLight rain. Partly cloudy.2 mph93%29.03 "HgN/A
3:50 AM37 °FPartly cloudy.2 mph87%29.03 "HgN/A
3:20 AM37 °FPartly cloudy.3 mph87%29.06 "HgN/A
2:20 AM36 °FLight rain. Passing clouds.1 mph93%29.06 "HgN/A
1:50 AM36 °FPassing clouds.2 mph93%29.06 "HgN/A
1:20 AM36 °FPassing clouds.3 mph93%29.06 "HgN/A
12:50 AM36 °FLight rain. Passing clouds.3 mph93%29.09 "HgN/A
12:20 AM36 °FLight rain. Passing clouds.1 mph93%29.09 "HgN/A
11:50 PM
Sat, Feb 13
34 °FPassing clouds.3 mph100%29.09 "HgN/A
11:20 PM34 °FPassing clouds.3 mph100%29.12 "HgN/A
10:50 PM36 °FPassing clouds.3 mph93%29.12 "HgN/A
9:50 PM36 °FMostly cloudy.5 mph87%29.15 "HgN/A
9:20 PM36 °FLight rain. Mostly cloudy.5 mph93%29.15 "HgN/A
8:50 PM36 °FLight rain. Mostly cloudy.5 mph87%29.18 "HgN/A
8:20 PM36 °FLight rain. Overcast.6 mph87%29.18 "HgN/A
7:50 PM36 °FLight rain. Overcast.7 mph87%29.18 "HgN/A
7:20 PM36 °FLight rain. Mostly cloudy.6 mph81%29.18 "HgN/A
6:50 PM36 °FOvercast.6 mph81%29.21 "HgN/A
6:20 PM36 °FMostly cloudy.7 mph81%29.21 "HgN/A
Weather by CustomWeather, © 2016

See weather overviewHow to use our weather pages